Regional Weather Roundup
Issued by NWS Jackson, KY

Home | Current Version | Previous Version | Text Only | Print | Product List | Glossary On
Versions: 1 2 3 4 5 6 7 8 9 10 11 12 13 14 15 16 17 18 19 20 21 22 23 24 25 26 27 28 29 30 31 32 33 34 35 36 37 38 39 40 41 42 43 44 45 46 47 48 49 50
000
ASUS43 KJKL 271410
RWRJKL

EAST KENTUCKY HOURLY WEATHER ROUNDUP
NATIONAL WEATHER SERVICE JACKSON KY
1000 AM EDT SAT MAY 27 2017

NOTE: "FAIR" INDICATES FEW OR NO CLOUDS BELOW 12,000 FEET WITH
NO SIGNIFICANT WEATHER AND/OR OBSTRUCTIONS TO VISIBILITY.

* THESE REPORTS ARE NOT UNDER NWS QUALITY CONTROL AND MAY NOT
  REPORT WEATHER SUCH AS PRECIPITATION AND FOG.

KYZ079-080-083-085-087-088-110-112-115-119-120-271500
...EASTERN KENTUCKY...

CITY           SKY/WX    TMP DP  RH WIND       PRES   REMARKS
JACKSON        CLOUDY    72  63  73 CALM      29.96R
LONDON         LGT RAIN  71  61  70 SW7       29.98R
SOMERSET*      CLOUDY    70  61  73 S3        29.98S
MONTICELLO*    CLOUDY    73  65  75 W13       29.99R
WILLIAMSBURG*  PTSUNNY   72  64  78 SW5       29.98S
MIDDLESBORO*   CLOUDY    72  64  74 S5        30.00R
HARLAN APT*    CLOUDY    68  61  77 CALM      30.01S
PIKE CO APT*   CLOUDY    72  63  74 SW5       29.97R
BIG SANDY APT* CLOUDY    73  63  71 W7        29.96R
MOREHEAD APT*  CLOUDY    72  63  73 SW8       29.95R
ASHLAND*       CLOUDY    72  66  83 NW3       29.88R
$$

KYZ035-036-041-042-044-050-067-078-099-271500
...CENTRAL KENTUCKY...

CITY           SKY/WX    TMP DP  RH WIND       PRES   REMARKS
MT STERLING*   CLOUDY    72  64  78 W7        29.94F
FLEMING/MASON* CLOUDY    72  66  83 W9        29.92S
DANVILLE*      CLOUDY    72  63  73 W7        29.95F
LEXINGTON      CLOUDY    73  64  73 SW8       29.93S
FRANKFORT      CLOUDY    74  65  73 SW8       29.90F
LOUISVILLE     CLOUDY    76  69  79 W5        29.89S
LEBANON*       CLOUDY    72  64  78 S7        29.94R
GLASGOW*       CLOUDY    74  65  74 SW7       29.95S
BOWLING GREEN  CLOUDY    76  68  76 S7        29.90F
$$

KYZ091>093-OHZ055-061-077-WVZ005-015-034-035-042-271500
...SOUTHERN OHIO/WEST VIRGINIA...

CITY           SKY/WX    TMP DP  RH WIND       PRES   REMARKS
COVINGTON      PTSUNNY   74  67  78 W8        29.88S
COLUMBUS       PTSUNNY   69  64  84 SE5       29.87R
DAYTON         CLOUDY    69  66  90 NW8       29.88S
WILMINGTON     CLOUDY    71  68  90 W7        29.88R
HUNTINGTON     CLOUDY    72  63  73 SW6       29.90R
CHARLESTON     CLOUDY    71  62  73 SW6       29.90S
PINEVILLE*     CLOUDY    72  62  71 MISG      30.02R
BECKLEY        CLOUDY    69  59  70 W8        29.99S
BLUEFIELD      PTSUNNY   69  58  67 W16G24    30.02S
LOGAN CO APT*  CLOUDY    70  63  78 CALM      29.96R
$$

VAZ002-007-008-TNZ017-027-036-066-071-271500
...SOUTHWEST VIRGINIA/EAST TENNESSEE...

CITY           SKY/WX    TMP DP  RH WIND       PRES   REMARKS
WISE*          CLOUDY    68  59  73 SW9G16    30.05R
JONESVILLE*    PTSUNNY   68  63  83 CALM      30.03S
ABINGDON*      CLOUDY    72  64  74 W6        30.03R
BRISTOL        PTSUNNY   71  62  73 CALM      30.02R
MORRISTOWN*    CLOUDY    73  63  68 W9G16     30.00S
SEVIERVILLE*   CLOUDY    73  63  68 CALM      30.00R
KNOXVILLE      CLOUDY    74  63  68 SW12      30.00S
LAFOLLETTE*    CLOUDY    70  64  83 CALM      30.03R
OAK RIDGE      CLOUDY    73  63  70 SW6       30.02R
CROSSVILLE     PTSUNNY   69  62  78 SW5       30.05R
NASHVILLE      CLOUDY    74  64  71 SW9       29.97S
$$

...KEY TO REMARKS...
VSB - VISIBILITY IN MILES
WCI - WIND CHILL INDEX
HX  - HEAT INDEX

$$



USA.gov is the U.S. government's official web portal to all federal, state and local government web resources and services.